Starlink 32949

operational
NORAD ID: 63145 Int'l Des: 2025-043 Owner: SPXS Country: US Constellation: starlink
LEOCIRCULAR

About Starlink 32949

Description loading...

Live Position

Loading 3D Globe...

Upcoming Passes

Altitude History

Altitude vs Time

uPlot chart will show altitude changes over time

Two-Line Element Set

1 63145U 25043P 25349.69760754 .00016315 00000-0 60101-3 0 9997
2 63145 42.9986 130.8476 0001042 272.5797 87.4936 15.27584159 45085
Epoch: Dec 15, 2025 • Age: 35 hours

Current Status

Altitude 488.5 km
Velocity 7.62 km/s
Sub-Earth Point -24.19°S, 178.08°W
Launch Date Mar 3, 2025
Age 0.7 years
Type internet

Technical Details

Classification Payload
Mass 730.00 kg
Dry Mass 700.00 kg
Total Mass 730.00 kg
Length 0.30 m
Diameter 4.10 m
Span 29.00 m
Shape Box + pan
Manufacturer SPXS
Bus Type Starlink V2M
Phase Status In Orbit
Owner/State SPXS/US

Large Constellations

Loading constellations...